Location: Medlow Airstrip Trail, Medlow Bath NSW 2780, Australia
(33.6682°S, 150.3233°E)
Time: 17:34:18
(UTC+11:00)

Explorer 11/Cluster Stage 4 - Pass Details

Date: 25 September 2019
Orbit: 467 x 1259 km, 28.8° (Epoch: 17 October)

Event Time Altitude Azimuth Distance (km) Brightness Sun altitude
Rises 09:01:38 0° 291° (WNW) 2,840 9.2 38.5°
Reaches altitude 10° 09:03:49 10° 297° (WNW) 2,037 8.6 38.9°
Maximum altitude 09:08:23 46° 10° (N) 997 8.2 39.7°
Drops below altitude 10° 09:14:06 10° 82° (E) 2,548 10.2 40.7°
Sets 09:17:07 0° 87° (E) 3,634 10.6 41.2°
